Location: *
(28.3744°N, 81.5492°W)
Time: 04:06:35
(UTC+00:00)

Atlas Centaur 2 - Pass Details

Date: 15 June 2025
Orbit: 456 x 1256 km, 30.4° (Epoch: 11 July)

Event Time Altitude Azimuth Distance (km) Brightness Sun altitude
Exits shadow 08:10:55 45° 240° (WSW) 1,625 3.2 -24.9°
Maximum altitude 08:13:46 79° 163° (SSE) 1,274 2.9 -24.5°
Drops below altitude 10° 08:21:56 10° 78° (ENE) 3,175 5.9 -23.3°
Sets 08:24:44 0° 77° (ENE) 4,086 6.7 -22.8°
